FW8270 Weather Reports


time (UTC)temp
C
wind
direction
speed
KPH
gust
KPH
rain 1hr
cm
rain 24hr
cm
rain mn
cm
humidity
%
barometer
mb
20260507083044 11 0 0.0 0.0 0.00 0.00 0.00 86 1022.8
20260507081538 11 0 0.0 1.6 0.00 0.00 0.00 86 1022.8
20260507080042 11 0 0.0 1.6 0.00 0.00 0.00 86 1022.7
20260507074536 11 0 0.0 4.8 0.00 0.00 0.00 86 1022.7
20260507073044 11 0 0.0 3.2 0.00 0.00 0.00 87 1022.7
20260507071541 11 0 0.0 1.6 0.00 0.00 0.00 86 1022.5
20260507070100 11 0 0.0 1.6 0.00 0.00 0.00 86 1022.4
20260507064550 11 0 0.0 1.6 0.00 0.00 0.00 86 1022.3
20260507063041 11 0 0.0 0.0 0.00 0.00 0.00 86 1022.5
20260507061537 11 0 0.0 0.0 0.00 0.00 0.00 86 1022.6
20260507060040 11 0 0.0 0.0 0.00 0.00 0.00 86 1022.4
20260507054552 11 0 0.0 0.0 0.00 0.00 0.00 86 1022.5
20260507053048 12 0 0.0 1.6 0.00 0.00 0.00 87 1022.6
20260507051548 12 0 0.0 0.0 0.00 0.00 0.00 86 1022.8
20260507050048 12 0 0.0 1.6 0.00 0.00 0.00 86 1022.6
20260507044549 12 0 0.0 0.0 0.00 0.00 0.00 86 1022.7
20260507043042 12 0 0.0 1.6 0.00 0.00 0.00 86 1022.5
20260507041552 11 0 0.0 1.6 0.00 0.00 0.00 86 1022.4
20260507040043 12 0 0.0 1.6 0.00 0.00 0.00 85 1022.4
20260507034540 12 0 0.0 0.0 0.00 0.00 0.00 84 1022.4
20260507033039 12 0 0.0 0.0 0.00 0.00 0.00 83 1022.1
20260507031540 12 0 0.0 1.6 0.00 0.00 0.00 83 1022.0
20260507030041 12 0 0.0 1.6 0.00 0.00 0.00 83 1022.1
20260507024541 12 0 0.0 1.6 0.00 0.00 0.00 82 1022.1
20260507023038 12 0 0.0 0.0 0.00 0.00 0.00 82 1022.1
20260507021539 12 23 0.0 3.2 0.00 0.00 0.00 82 1021.9
20260507020059 13 0 0.0 1.6 0.00 0.00 0.00 81 1022.0
20260507014556 13 0 0.0 1.6 0.00 0.00 0.00 80 1021.9
20260507013045 13 0 0.0 1.6 0.00 0.00 0.00 80 1022.0
20260507011543 13 165 0.0 6.4 0.00 0.00 0.00 78 1022.1
20260507010043 13 0 0.0 3.2 0.00 0.00 0.00 78 1022.0
20260507004536 13 137 0.0 3.2 0.00 0.00 0.00 77 1022.1
20260507003041 13 214 0.0 3.2 0.00 0.00 0.00 76 1022.1
20260507001557 13 178 0.0 12.9 0.00 0.00 0.00 77 1022.1
20260507000046 13 0 0.0 6.4 0.00 0.00 0.00 76 1022.1
20260506234543 13 0 0.0 3.2 0.00 0.00 0.00 76 1022.2
20260506233039 13 0 0.0 8.0 0.00 0.00 0.00 75 1022.1
20260506231539 13 191 0.0 1.6 0.00 0.00 0.00 75 1022.1
20260506230042 13 196 1.6 12.9 0.00 0.00 0.00 75 1022.1
20260506224534 13 0 0.0 12.9 0.00 0.00 0.00 75 1022.1
20260506223040 13 180 0.0 12.9 0.00 0.00 0.00 75 1022.2
20260506221550 13 136 1.6 12.9 0.00 0.00 0.00 74 1022.1
20260506220045 13 0 0.0 6.4 0.00 0.00 0.00 75 1022.4
20260506214537 13 210 0.0 4.8 0.00 0.00 0.00 76 1022.2
20260506213043 13 0 0.0 14.5 0.00 0.00 0.00 78 1022.3
20260506211542 13 0 0.0 3.2 0.00 0.00 0.00 78 1022.4
20260506210046 13 0 0.0 9.7 0.00 0.00 0.00 80 1022.3
20260506204541 13 158 1.6 11.3 0.00 0.00 0.00 80 1022.3
20260506203037 13 181 3.2 9.7 0.00 0.00 0.00 80 1022.5
20260506201539 12 0 1.6 8.0 0.00 0.00 0.00 82 1022.3
20260506200044 12 0 0.0 11.3 0.00 0.00 0.00 84 1022.4
20260506194544 12 0 0.0 3.2 0.00 0.00 0.00 86 1022.0
20260506193049 12 0 1.6 8.0 0.00 0.00 0.00 88 1022.1
20260506191537 12 0 0.0 1.6 0.00 0.00 0.00 87 1022.1
20260506190036 12 93 0.0 1.6 0.00 0.00 0.00 87 1022.0
20260506184540 12 0 0.0 4.8 0.00 0.00 0.00 88 1022.0
20260506183035 12 0 0.0 3.2 0.00 0.00 0.00 89 1021.8
20260506181556 11 0 0.0 0.0 0.00 0.00 0.00 89 1021.9
20260506180038 11 0 0.0 1.6 0.00 0.00 0.00 88 1022.0
20260506174538 12 0 0.0 1.6 0.00 0.00 0.00 87 1021.4
20260506173103 12 0 1.6 8.0 0.00 0.00 0.00 85 1021.6
20260506171542 12 0 0.0 8.0 0.00 0.00 0.00 85 1021.9
20260506170051 12 0 0.0 1.6 0.00 0.00 0.00 86 1021.8
20260506164541 12 0 0.0 1.6 0.00 0.00 0.00 85 1021.6
20260506163051 12 0 0.0 1.6 0.00 0.00 0.00 86 1021.5
20260506161540 12 0 0.0 4.8 0.00 0.00 0.00 87 1021.3
20260506160042 12 0 0.0 1.6 0.00 0.00 0.00 87 1021.2
20260506154555 12 168 0.0 11.3 0.00 0.00 0.00 89 1020.8
20260506153041 11 146 1.6 6.4 0.00 0.00 0.00 89 1021.3
20260506151542 11 0 0.0 3.2 0.00 0.00 0.00 90 1021.4
20260506150041 11 0 0.0 1.6 0.00 0.00 0.00 90 1021.3
20260506144550 11 0 0.0 4.8 0.00 0.00 0.00 90 1021.0
20260506143036 11 0 0.0 0.0 0.00 0.00 0.00 90 1021.0
20260506141537 11 153 0.0 3.2 0.00 0.00 0.00 89 1021.1
20260506140037 11 0 0.0 3.2 0.00 0.00 0.00 89 1021.0
20260506134542 11 152 0.0 1.6 0.00 0.00 0.00 89 1020.9
20260506133055 11 0 0.0 3.2 0.00 0.00 0.00 88 1020.8
20260506131537 11 0 0.0 0.0 0.00 0.00 0.00 87 1020.6
20260506130039 11 0 0.0 3.2 0.00 0.00 0.00 88 1020.4
20260506124537 11 0 0.0 0.0 0.00 0.00 0.00 88 1020.1
20260506123032 11 0 0.0 0.0 0.00 0.00 0.00 88 1020.2
20260506121541 11 0 0.0 1.6 0.00 0.00 0.00 87 1019.9
20260506120038 11 0 0.0 1.6 0.00 0.00 0.00 88 1019.9
20260506114540 11 0 0.0 3.2 0.00 0.00 0.00 88 1019.9
20260506113037 11 0 0.0 4.8 0.00 0.00 0.00 88 1019.8
20260506111535 11 169 0.0 3.2 0.00 0.00 0.00 89 1019.5
20260506110041 11 0 0.0 0.0 0.00 0.00 0.00 91 1019.4
20260506104606 11 0 0.0 0.0 0.00 0.00 0.00 92 1019.4
20260506103041 11 0 0.0 0.0 0.00 0.00 0.00 93 1019.3
20260506101541 10 0 0.0 0.0 0.00 0.00 0.00 93 1019.4
20260506100042 10 0 0.0 0.0 0.00 0.00 0.00 93 1019.3
20260506094538 10 0 0.0 0.0 0.00 0.00 0.00 93 1019.3
20260506093035 10 0 0.0 0.0 0.00 0.00 0.00 92 1019.1
20260506091541 10 0 0.0 0.0 0.00 0.00 0.00 92 1019.0
20260506090046 10 0 0.0 0.0 0.00 0.00 0.00 92 1019.0
20260506084538 10 0 0.0 0.0 0.00 0.00 0.00 92 1018.9